| time (UTC) | temp F | wind direction | speed MPH | gust MPH | rain 1hr in | rain 24hr in | rain mn in | humidity % | barometer mb |
| 20260508193055 | 70 | 163 | 2.0 | 6.0 | 0.00 | 0.00 | 0.00 | 28 | 1011.5 |
| 20260508191551 | 70 | 132 | 0.0 | 4.0 | 0.00 | 0.00 | 0.00 | 27 | 1011.8 |
| 20260508190052 | 70 | 86 | 0.0 | 4.0 | 0.00 | 0.00 | 0.00 | 28 | 1012.0 |
| 20260508184549 | 69 | 64 | 0.0 | 8.0 | 0.00 | 0.00 | 0.00 | 28 | 1012.2 |
| 20260508183052 | 70 | 140 | 2.0 | 15.0 | 0.00 | 0.00 | 0.00 | 27 | 1012.4 |
| 20260508181608 | 70 | 144 | 0.0 | 3.0 | 0.00 | 0.00 | 0.00 | 29 | 1012.7 |
| 20260508180103 | 70 | 144 | 0.0 | 5.0 | 0.00 | 0.00 | 0.00 | 28 | 1012.8 |
| 20260508174546 | 69 | 163 | 0.0 | 8.0 | 0.00 | 0.01 | 0.00 | 30 | 1013.0 |
| 20260508173048 | 68 | 162 | 0.0 | 6.0 | 0.00 | 0.01 | 0.00 | 30 | 1013.0 |
| 20260508171543 | 68 | 130 | 0.0 | 3.0 | 0.00 | 0.01 | 0.00 | 30 | 1013.2 |
| 20260508170041 | 67 | 35 | 0.0 | 4.0 | 0.00 | 0.01 | 0.00 | 31 | 1013.5 |
| 20260508164541 | 67 | 114 | 0.0 | 4.0 | 0.00 | 0.01 | 0.00 | 31 | 1013.7 |
| 20260508163035 | 66 | 159 | 0.0 | 10.0 | 0.00 | 0.01 | 0.00 | 34 | 1013.9 |
| 20260508161537 | 66 | 26 | 1.0 | 5.0 | 0.00 | 0.01 | 0.00 | 30 | 1014.3 |
| 20260508160038 | 65 | 157 | 0.0 | 6.0 | 0.00 | 0.01 | 0.00 | 32 | 1014.5 |
| 20260508154527 | 64 | 157 | 0.0 | 3.0 | 0.00 | 0.01 | 0.00 | 35 | 1014.5 |
| 20260508153024 | 64 | 152 | 0.0 | 3.0 | 0.00 | 0.01 | 0.00 | 35 | 1014.7 |
| 20260508151521 | 63 | 150 | 0.0 | 7.0 | 0.00 | 0.01 | 0.00 | 37 | 1014.9 |
| 20260508150020 | 62 | 138 | 0.0 | 4.0 | 0.00 | 0.01 | 0.00 | 37 | 1014.9 |
| 20260508144513 | 62 | 136 | 0.0 | 4.0 | 0.00 | 0.01 | 0.00 | 31 | 1015.1 |
| 20260508143009 | 60 | 79 | 0.0 | 1.0 | 0.00 | 0.01 | 0.00 | 38 | 1015.1 |
| 20260508141509 | 58 | 79 | 0.0 | 3.0 | 0.00 | 0.01 | 0.00 | 37 | 1015.2 |
| 20260508140001 | 57 | 80 | 0.0 | 4.0 | 0.00 | 0.01 | 0.00 | 41 | 1015.4 |
| 20260508134558 | 56 | 98 | 0.0 | 0.0 | 0.00 | 0.01 | 0.00 | 48 | 1015.3 |
| 20260508133053 | 54 | 98 | 0.0 | 4.0 | 0.00 | 0.01 | 0.00 | 56 | 1015.5 |
| 20260508131557 | 52 | 101 | 1.0 | 5.0 | 0.00 | 0.01 | 0.00 | 65 | 1015.3 |
| 20260508130045 | 49 | 159 | 0.0 | 3.0 | 0.00 | 0.01 | 0.00 | 79 | 1015.4 |
| 20260508124540 | 47 | 159 | 0.0 | 1.0 | 0.00 | 0.01 | 0.00 | 87 | 1015.5 |
| 20260508123039 | 46 | 159 | 0.0 | 0.0 | 0.00 | 0.01 | 0.00 | 89 | 1015.3 |
| 20260508121537 | 45 | 159 | 0.0 | 0.0 | 0.00 | 0.01 | 0.00 | 90 | 1015.0 |
| 20260508120039 | 43 | 159 | 0.0 | 0.0 | 0.00 | 0.01 | 0.00 | 90 | 1015.1 |
| 20260508114533 | 42 | 159 | 0.0 | 0.0 | 0.00 | 0.01 | 0.00 | 89 | 1014.9 |
| 20260508113032 | 41 | 159 | 0.0 | 0.0 | 0.00 | 0.01 | 0.00 | 89 | 1014.9 |
| 20260508111543 | 41 | 159 | 0.0 | 0.0 | 0.00 | 0.01 | 0.00 | 88 | 1014.7 |
| 20260508110026 | 41 | 159 | 0.0 | 0.0 | 0.00 | 0.01 | 0.00 | 88 | 1014.4 |
| 20260508104523 | 41 | 159 | 0.0 | 0.0 | 0.00 | 0.01 | 0.00 | 88 | 1014.2 |
| 20260508103029 | 42 | 159 | 0.0 | 0.0 | 0.00 | 0.01 | 0.00 | 88 | 1013.7 |
| 20260508101526 | 42 | 159 | 0.0 | 0.0 | 0.00 | 0.01 | 0.00 | 88 | 1013.4 |
| 20260508100015 | 42 | 159 | 0.0 | 0.0 | 0.00 | 0.01 | 0.00 | 88 | 1013.3 |
| 20260508094513 | 43 | 159 | 0.0 | 0.0 | 0.00 | 0.01 | 0.00 | 88 | 1013.2 |
| 20260508093012 | 43 | 159 | 0.0 | 0.0 | 0.00 | 0.01 | 0.00 | 88 | 1013.2 |
| 20260508091513 | 43 | 159 | 0.0 | 0.0 | 0.00 | 0.01 | 0.00 | 88 | 1013.3 |
| 20260508090009 | 44 | 159 | 0.0 | 0.0 | 0.00 | 0.01 | 0.00 | 88 | 1013.2 |
| 20260508084506 | 44 | 159 | 0.0 | 0.0 | 0.00 | 0.01 | 0.00 | 88 | 1012.8 |
| 20260508083005 | 45 | 159 | 0.0 | 0.0 | 0.00 | 0.01 | 0.00 | 88 | 1012.9 |
| 20260508081503 | 45 | 159 | 0.0 | 0.0 | 0.00 | 0.01 | 0.00 | 88 | 1012.6 |
| 20260508080001 | 46 | 159 | 0.0 | 0.0 | 0.00 | 0.01 | 0.00 | 88 | 1012.7 |
| 20260508074600 | 46 | 159 | 0.0 | 0.0 | 0.00 | 0.01 | 0.00 | 88 | 1012.6 |
| 20260508073058 | 47 | 159 | 0.0 | 0.0 | 0.00 | 0.01 | 0.00 | 88 | 1012.5 |
| 20260508071555 | 47 | 159 | 0.0 | 0.0 | 0.00 | 0.01 | 0.00 | 88 | 1012.3 |
| 20260508070053 | 48 | 159 | 0.0 | 0.0 | 0.00 | 0.01 | 0.00 | 88 | 1012.1 |
| 20260508064556 | 48 | 159 | 0.0 | 0.0 | 0.00 | 0.02 | 0.00 | 88 | 1011.9 |
| 20260508063050 | 48 | 159 | 0.0 | 2.0 | 0.00 | 0.02 | 0.00 | 88 | 1011.7 |
| 20260508061554 | 49 | 159 | 0.0 | 3.0 | 0.00 | 0.02 | 0.00 | 88 | 1011.3 |
| 20260508060050 | 48 | 159 | 0.0 | 0.0 | 0.00 | 0.02 | 0.00 | 87 | 1011.2 |
| 20260508054545 | 48 | 159 | 0.0 | 0.0 | 0.00 | 0.02 | 0.00 | 87 | 1011.1 |
| 20260508053045 | 49 | 159 | 0.0 | 0.0 | 0.00 | 0.02 | 0.00 | 87 | 1011.2 |
| 20260508051551 | 49 | 159 | 0.0 | 0.0 | 0.00 | 0.02 | 0.00 | 86 | 1011.2 |
| 20260508050043 | 49 | 159 | 0.0 | 0.0 | 0.00 | 0.02 | 0.00 | 86 | 1010.9 |
| 20260508044540 | 49 | 159 | 0.0 | 0.0 | 0.00 | 0.04 | 0.02 | 85 | 1011.0 |
| 20260508043042 | 49 | 159 | 0.0 | 0.0 | 0.00 | 0.04 | 0.02 | 85 | 1010.8 |
| 20260508041539 | 49 | 159 | 0.0 | 0.0 | 0.00 | 0.04 | 0.02 | 84 | 1010.8 |
| 20260508040041 | 49 | 159 | 0.0 | 0.0 | 0.00 | 0.04 | 0.02 | 84 | 1010.8 |
| 20260508034537 | 49 | 159 | 0.0 | 0.0 | 0.00 | 0.04 | 0.02 | 83 | 1010.5 |
| 20260508033036 | 50 | 159 | 0.0 | 0.0 | 0.00 | 0.04 | 0.02 | 83 | 1010.4 |
| 20260508031534 | 50 | 159 | 0.0 | 0.0 | 0.00 | 0.04 | 0.02 | 82 | 1010.5 |
| 20260508030034 | 51 | 159 | 0.0 | 0.0 | 0.00 | 0.04 | 0.02 | 82 | 1010.2 |
| 20260508024542 | 51 | 159 | 0.0 | 0.0 | 0.00 | 0.04 | 0.02 | 82 | 1010.3 |
| 20260508023030 | 51 | 159 | 0.0 | 0.0 | 0.00 | 0.04 | 0.02 | 81 | 1010.4 |
| 20260508021528 | 52 | 159 | 0.0 | 0.0 | 0.00 | 0.04 | 0.02 | 81 | 1010.3 |
| 20260508020028 | 52 | 159 | 0.0 | 0.0 | 0.00 | 0.04 | 0.02 | 80 | 1010.2 |
| 20260508014543 | 52 | 159 | 0.0 | 0.0 | 0.00 | 0.04 | 0.02 | 80 | 1010.1 |
| 20260508013027 | 52 | 159 | 0.0 | 0.0 | 0.00 | 0.04 | 0.02 | 79 | 1009.9 |
| 20260508011528 | 52 | 159 | 0.0 | 0.0 | 0.00 | 0.04 | 0.02 | 78 | 1009.7 |
| 20260508010030 | 52 | 159 | 0.0 | 0.0 | 0.00 | 0.04 | 0.02 | 77 | 1009.7 |
| 20260508004527 | 53 | 159 | 0.0 | 0.0 | 0.00 | 0.04 | 0.02 | 75 | 1009.6 |
| 20260508003047 | 53 | 159 | 0.0 | 0.0 | 0.00 | 0.04 | 0.02 | 74 | 1009.4 |
| 20260508001522 | 54 | 159 | 0.0 | 0.0 | 0.00 | 0.04 | 0.02 | 73 | 1009.4 |
| 20260508000021 | 55 | 159 | 0.0 | 0.0 | 0.00 | 0.04 | 0.02 | 72 | 1009.1 |
| 20260507234519 | 55 | 159 | 0.0 | 0.0 | 0.00 | 0.04 | 0.02 | 71 | 1009.0 |
| 20260507233031 | 56 | 159 | 0.0 | 0.0 | 0.00 | 0.04 | 0.02 | 70 | 1008.6 |
| 20260507231519 | 56 | 159 | 0.0 | 2.0 | 0.00 | 0.04 | 0.02 | 69 | 1008.5 |
| 20260507230018 | 57 | 159 | 0.0 | 6.0 | 0.00 | 0.04 | 0.02 | 68 | 1008.4 |
| 20260507224517 | 57 | 159 | 0.0 | 4.0 | 0.00 | 0.04 | 0.02 | 68 | 1008.3 |
| 20260507223017 | 58 | 159 | 0.0 | 5.0 | 0.00 | 0.04 | 0.02 | 67 | 1008.2 |
| 20260507221516 | 57 | 159 | 0.0 | 6.0 | 0.00 | 0.04 | 0.02 | 67 | 1008.3 |
| 20260507220015 | 57 | 159 | 0.0 | 2.0 | 0.00 | 0.04 | 0.02 | 68 | 1008.1 |
| 20260507214514 | 57 | 159 | 0.0 | 5.0 | 0.00 | 0.04 | 0.02 | 67 | 1008.1 |
| 20260507213014 | 57 | 158 | 0.0 | 8.0 | 0.00 | 0.04 | 0.02 | 66 | 1008.2 |
| 20260507211514 | 57 | 162 | 0.0 | 7.0 | 0.00 | 0.04 | 0.02 | 65 | 1008.3 |
| 20260507210013 | 57 | 165 | 0.0 | 3.0 | 0.00 | 0.04 | 0.02 | 65 | 1008.3 |
| 20260507204513 | 56 | 165 | 0.0 | 2.0 | 0.00 | 0.04 | 0.02 | 65 | 1008.4 |
| 20260507203015 | 56 | 165 | 0.0 | 3.0 | 0.00 | 0.04 | 0.02 | 62 | 1008.5 |
| 20260507201512 | 56 | 165 | 1.0 | 6.0 | 0.00 | 0.04 | 0.02 | 64 | 1008.6 |
| 20260507200013 | 55 | 169 | 0.0 | 1.0 | 0.00 | 0.04 | 0.02 | 65 | 1008.5 |
| 20260507194611 | 55 | 169 | 0.0 | 3.0 | 0.00 | 0.04 | 0.02 | 65 | 1008.6 |